FW5345 Weather Reports


Display with metric or nautical units.
time (UTC)temp
F
wind
direction
speed
MPH
gust
MPH
rain 1hr
in
rain 24hr
in
rain mn
in
humidity
%
barometer
mb
20260509011534 64 265 5.0 13.0 0.00 0.00 0.00 40 1021.1
20260509010029 64 264 4.0 15.0 0.00 0.00 0.00 40 1021.1
20260509004537 64 288 6.0 15.0 0.00 0.00 0.00 39 1020.9
20260509001645 67 288 5.0 14.0 0.00 0.00 0.00 35 1020.5
20260508234535 67 270 5.0 11.0 0.00 0.00 0.00 34 1020.4
20260508233032 66 311 3.0 8.0 0.00 0.00 0.00 33 1020.3
20260508231534 67 276 6.0 16.0 0.00 0.00 0.00 32 1020.3
20260508224533 67 296 8.0 19.0 0.00 0.00 0.00 29 1020.1
20260508223150 67 327 2.0 9.0 0.00 0.00 0.00 29 1020.1
20260508221537 67 290 6.0 16.0 0.00 0.00 0.00 27 1020.1
20260508220034 67 213 4.0 13.0 0.00 0.00 0.00 27 1020.1
20260508214531 67 247 5.0 19.0 0.00 0.00 0.00 26 1020.2
20260508213033 66 243 6.0 15.0 0.00 0.00 0.00 25 1020.2
20260508211535 66 272 6.0 20.0 0.00 0.00 0.00 24 1020.1
20260508210035 65 246 7.0 21.0 0.00 0.00 0.00 22 1020.0
20260508204532 65 230 7.0 19.0 0.00 0.00 0.00 24 1020.1
20260508203116 65 283 8.0 17.0 0.00 0.00 0.00 27 1019.9
20260508201529 64 278 6.0 18.0 0.00 0.00 0.00 27 1019.9
20260508200029 63 227 6.0 15.0 0.00 0.00 0.00 25 1019.9
20260508193037 64 238 7.0 21.0 0.00 0.00 0.00 27 1019.7
20260508191643 64 230 7.0 25.0 0.00 0.00 0.00 29 1019.6
20260508190031 65 246 5.0 15.0 0.00 0.00 0.00 32 1019.6
20260508184531 62 266 5.0 11.0 0.00 0.00 0.00 41 1019.6
20260508183036 59 343 4.0 11.0 0.00 0.00 0.00 55 1019.5
20260508181538 56 8 4.0 6.0 0.00 0.00 0.00 59 1019.3
20260508180036 54 22 2.0 4.0 0.00 0.00 0.00 61 1019.4
20260508174535 54 6 0.0 3.0 0.00 0.00 0.00 61 1019.4
20260508173035 54 19 2.0 6.0 0.00 0.00 0.00 63 1019.1
20260508171536 53 53 1.0 4.0 0.00 0.00 0.00 64 1018.9
20260508170030 53 26 2.0 7.0 0.00 0.00 0.00 64 1019.0
20260508164535 53 6 3.0 8.0 0.00 0.00 0.00 65 1018.9
20260508163035 53 23 5.0 11.0 0.00 0.00 0.00 64 1018.9
20260508161653 54 348 7.0 16.0 0.00 0.00 0.00 64 1018.8
20260508160036 54 11 10.0 17.0 0.00 0.00 0.00 64 1018.8
20260508154535 55 14 9.0 17.0 0.00 0.00 0.00 64 1018.8
20260508151609 55 5 8.0 16.0 0.00 0.00 0.00 64 1018.5
20260508150031 55 353 8.0 16.0 0.00 0.00 0.00 62 1018.4
20260508144535 55 342 10.0 16.0 0.00 0.00 0.00 60 1018.2
20260508143035 54 342 9.0 14.0 0.00 0.00 0.00 60 1018.0
20260508141644 54 336 8.0 14.0 0.00 0.00 0.00 61 1017.8
20260508140037 54 321 6.0 16.0 0.00 0.00 0.00 60 1017.7
20260508134643 54 312 6.0 12.0 0.00 0.00 0.00 61 1017.7
20260508133035 54 316 7.0 13.0 0.00 0.00 0.00 62 1017.5
20260508131535 54 309 6.0 14.0 0.00 0.00 0.00 63 1017.5
20260508130037 49 330 5.0 8.0 0.00 0.00 0.00 71 1017.1
20260508124537 46 110 1.0 5.0 0.00 0.00 0.00 72 1017.1
20260508123033 45 150 2.0 5.0 0.00 0.00 0.00 70 1017.1
20260508121534 45 130 1.0 4.0 0.00 0.00 0.00 68 1017.0
20260508120036 45 153 3.0 6.0 0.00 0.00 0.00 67 1016.9
20260508111532 44 142 2.0 4.0 0.00 0.00 0.00 61 1016.6
20260508104535 45 129 2.0 4.0 0.00 0.00 0.00 60 1016.6
20260508103036 44 120 3.0 9.0 0.00 0.00 0.00 62 1016.6
20260508100033 44 128 4.0 8.0 0.00 0.00 0.00 62 1016.6
20260508094610 45 133 4.0 7.0 0.00 0.00 0.00 62 1016.6
20260508093031 44 138 5.0 8.0 0.00 0.00 0.00 64 1016.5
20260508090043 44 134 3.0 5.0 0.00 0.00 0.00 65 1016.5
20260508090036 44 142 4.0 7.0 0.00 0.00 0.00 66 1016.5
20260508081530 44 155 3.0 5.0 0.00 0.00 0.00 65 1016.6
20260508080032 45 168 3.0 4.0 0.00 0.00 0.00 63 1016.6
20260508074537 46 159 3.0 5.0 0.00 0.00 0.00 61 1016.7
20260508071533 46 154 4.0 9.0 0.00 0.00 0.00 62 1016.8
20260508070035 45 149 4.0 6.0 0.00 0.00 0.00 61 1016.8
20260508064609 47 155 4.0 7.0 0.00 0.00 0.00 59 1016.9
20260508063035 47 165 3.0 6.0 0.00 0.00 0.00 59 1016.9
20260508061610 47 149 5.0 8.0 0.00 0.00 0.00 57 1017.0
20260508060035 48 162 4.0 7.0 0.00 0.00 0.00 55 1017.1
20260508054537 49 157 2.0 5.0 0.00 0.00 0.00 51 1017.1
20260508053035 51 152 1.0 6.0 0.00 0.00 0.00 49 1017.1
20260508051534 53 140 2.0 6.0 0.00 0.00 0.00 45 1017.1
20260508050034 54 191 2.0 7.0 0.00 0.00 0.00 42 1017.1
20260508044532 55 294 2.0 6.0 0.00 0.00 0.00 40 1017.1
20260508041535 59 325 7.0 13.0 0.00 0.00 0.00 32 1016.7
20260508040036 61 318 8.0 16.0 0.00 0.00 0.00 28 1016.6
20260508034642 61 306 9.0 15.0 0.00 0.00 0.00 30 1016.4
20260508033111 61 316 8.0 16.0 0.00 0.00 0.00 34 1016.1
20260508030030 62 320 6.0 13.0 0.00 0.00 0.00 35 1016.3
20260508024530 63 316 6.0 16.0 0.00 0.00 0.00 34 1016.3
20260508021647 65 318 6.0 8.0 0.00 0.00 0.00 36 1016.0
20260508020034 67 314 7.0 13.0 0.00 0.00 0.00 33 1016.0
20260508011642 69 312 6.0 17.0 0.00 0.00 0.00 30 1016.2